Weather History for Fremont, NE

Change the Weather History Date:

Wednesday, July 18, 2012

  Actual Average Record
Temperature  
Mean Temperature 88 °F -  
Max Temperature 98 °F 90 °F 102 °F (1957)
Min Temperature 77 °F 66 °F 53 °F (1979)
Cooling Degree Days 22    
Growing Degree Days 38 (Base 50)    
Moisture  
Dew Point 64 °F    
Average Humidity 48    
Maximum Humidity 66    
Minimum Humidity 31    
Precipitation  
Precipitation 0.00 in - - ()
Sea Level Pressure  
Sea Level Pressure 29.85 in    
Wind  
Wind Speed 5 mph (South)    
Max Wind Speed 8 mph    
Max Gust Speed -    
Visibility 10 miles    
Events      
Averages and records for this station are not official NWS values.
T = Trace of Precipitation, MM = Missing Value Source: NWS Daily Summary

Daily Weather History Graph

Daily Weather History Graph

Search for Another Location

Airport:

Trip Planner

Search our weather history database for the weather conditions in past years. The results will help you decide how hot, cold, wet, or windy it might be!

Date:

Astronomy

Jul. 18, 2012 Rise Set
Actual Time 6:08 AM CDT 8:55 PM CDT
Civil Twilight 5:35 AM CDT 9:28 PM CDT
Nautical Twilight 4:54 AM CDT 10:09 PM CDT
Astronomical Twilight 4:07 AM CDT 10:55 PM CDT
Moon 5:44 AM CDT 8:25 PM CDT
Length of Visible Light 15h 52m
Length of Day
14h 47m
Waning Crescent, 0% of the Moon is Illuminated
Jul 18
Waning Crescent
Jul 18
New
Jul 26
First Quarter
Aug 1
Full
Aug 9
Last Quarter

Hourly Weather History & Observations

Time (CDT) Temp. Heat Index Dew Point Humidity Pressure Visibility Wind Dir Wind Speed Gust Speed Precip Events Conditions
12:15 AM 83.8 °F 86.5 °F 67.1 °F 57% 29.83 in 10.0 mi ESE 8.1 mph - N/A   Clear
12:35 AM 83.3 °F 85.9 °F 66.9 °F 58% 29.83 in 10.0 mi SE 5.8 mph - N/A   Clear
12:55 AM 82.2 °F 84.6 °F 66.7 °F 59% 29.83 in 10.0 mi ESE 5.8 mph - N/A   Clear
1:15 AM 81.1 °F 83.5 °F 66.9 °F 62% 29.82 in 10.0 mi ESE 4.6 mph - N/A   Clear
1:35 AM 81.7 °F 84.0 °F 66.6 °F 60% 29.82 in 10.0 mi ESE 4.6 mph - N/A   Scattered Clouds
2:15 AM 81.0 °F 83.0 °F 65.7 °F 60% 29.81 in 10.0 mi ESE 6.9 mph - N/A   Scattered Clouds
2:35 AM 81.5 °F 83.3 °F 64.9 °F 57% 29.81 in 10.0 mi SE 5.8 mph - N/A   Mostly Cloudy
2:55 AM 81.5 °F 83.1 °F 64.4 °F 56% 29.81 in 10.0 mi SE 6.9 mph - N/A   Mostly Cloudy
3:15 AM 80.8 °F 82.4 °F 64.2 °F 57% 29.80 in 10.0 mi SE 6.9 mph - N/A   Scattered Clouds
3:35 AM 81.5 °F 82.7 °F 62.8 °F 53% 29.79 in 10.0 mi SE 6.9 mph - N/A   Clear
3:55 AM 81.1 °F 82.4 °F 63.0 °F 54% 29.79 in 10.0 mi ESE 8.1 mph - N/A   Clear
4:15 AM 80.2 °F 81.6 °F 63.1 °F 56% 29.79 in 10.0 mi SE 4.6 mph - N/A   Clear
4:35 AM 79.2 °F - 63.1 °F 58% 29.79 in 10.0 mi SE 4.6 mph - N/A   Clear
4:55 AM 78.4 °F - 63.0 °F 59% 29.80 in 10.0 mi Calm Calm - N/A   Scattered Clouds
5:15 AM 79.5 °F - 62.1 °F 55% 29.81 in 10.0 mi ESE 3.5 mph - N/A   Scattered Clouds
5:35 AM 79.0 °F - 61.7 °F 55% 29.81 in 10.0 mi Calm Calm - N/A   Scattered Clouds
5:55 AM 79.3 °F - 62.1 °F 55% 29.82 in 10.0 mi Calm Calm - N/A   Clear
6:15 AM 78.6 °F - 62.6 °F 58% 29.83 in 10.0 mi Calm Calm - N/A   Clear
6:35 AM 77.2 °F - 63.0 °F 61% 29.83 in 10.0 mi Calm Calm - N/A   Clear
6:55 AM 77.2 °F - 65.1 °F 66% 29.83 in 10.0 mi Calm Calm - N/A   Clear
7:15 AM 78.8 °F - 63.9 °F 60% 29.84 in 10.0 mi ESE 3.5 mph - N/A   Clear
7:35 AM 78.8 °F - 64.6 °F 62% 29.84 in 10.0 mi Calm Calm - N/A   Clear
7:55 AM 79.9 °F - 63.0 °F 56% 29.84 in 10.0 mi SE 6.9 mph - N/A   Clear
8:15 AM 78.8 °F - 64.2 °F 61% 29.85 in 10.0 mi SE 5.8 mph - N/A   Scattered Clouds
8:35 AM 78.8 °F - 64.9 °F 62% 29.85 in 10.0 mi SE 4.6 mph - N/A   Scattered Clouds
8:55 AM 80.6 °F 82.3 °F 64.6 °F 58% 29.85 in 10.0 mi SE 4.6 mph - N/A   Clear
9:35 AM 83.3 °F 84.6 °F 63.9 °F 52% 29.86 in 10.0 mi SSE 3.5 mph - N/A   Clear
9:55 AM 86.0 °F 86.8 °F 63.0 °F 46% 29.87 in 10.0 mi SSW 4.6 mph - N/A   Clear
10:15 AM 88.5 °F 88.6 °F 61.3 °F 40% 29.87 in 10.0 mi SSW 6.9 mph - N/A   Clear
10:35 AM 87.6 °F 87.7 °F 61.2 °F 41% 29.87 in 10.0 mi SW 5.8 mph - N/A   Clear
10:55 AM 88.7 °F 88.8 °F 61.2 °F 40% 29.87 in 10.0 mi SSW 5.8 mph - N/A   Clear
11:15 AM 89.2 °F 89.3 °F 61.3 °F 39% 29.86 in 10.0 mi SSW 4.6 mph - N/A   Clear
11:35 AM 89.6 °F 89.8 °F 61.5 °F 39% 29.86 in 10.0 mi SSW 5.8 mph - N/A   Clear
11:55 AM 90.5 °F 90.4 °F 61.2 °F 37% 29.86 in 10.0 mi SSW 5.8 mph - N/A   Clear
12:15 PM 91.8 °F 91.5 °F 60.8 °F 35% 29.86 in 10.0 mi SSW 4.6 mph - N/A   Clear
12:35 PM 92.5 °F 92.6 °F 61.3 °F 35% 29.87 in 10.0 mi SSW 8.1 mph - N/A   Clear
12:55 PM 93.0 °F 92.7 °F 59.7 °F 33% 29.87 in 10.0 mi West 3.5 mph - N/A   Clear
1:15 PM 93.4 °F 93.5 °F 60.8 °F 34% 29.87 in 10.0 mi SSW 3.5 mph - N/A   Clear
1:35 PM 93.9 °F 94.0 °F 60.6 °F 33% 29.87 in 10.0 mi West 4.6 mph - N/A   Clear
1:55 PM 93.9 °F 94.4 °F 61.7 °F 34% 29.86 in 10.0 mi Calm Calm - N/A   Clear
2:15 PM 94.6 °F 95.5 °F 62.1 °F 34% 29.86 in 10.0 mi NW 3.5 mph - N/A   Clear
2:35 PM 96.1 °F 96.9 °F 61.5 °F 32% 29.86 in 10.0 mi WNW 4.6 mph - N/A   Clear
2:55 PM 96.8 °F 97.5 °F 61.5 °F 31% 29.86 in 10.0 mi West 3.5 mph - N/A   Clear
3:15 PM 96.4 °F 97.4 °F 62.1 °F 32% 29.86 in 10.0 mi WSW 4.6 mph - N/A   Clear
3:35 PM 96.8 °F 97.5 °F 61.9 °F 31% 29.86 in 10.0 mi SSW 5.8 mph - N/A   Clear
3:55 PM 96.8 °F 98.0 °F 62.4 °F 32% 29.86 in 10.0 mi South 4.6 mph - N/A   Clear
4:15 PM 97.5 °F 99.2 °F 62.8 °F 32% 29.85 in 10.0 mi SSW 5.8 mph - N/A   Clear
4:35 PM 98.1 °F 99.6 °F 62.8 °F 31% 29.84 in 10.0 mi West 4.6 mph - N/A   Clear
4:55 PM 97.7 °F 100.0 °F 63.9 °F 33% 29.84 in 10.0 mi NW 6.9 mph - N/A   Clear
5:15 PM 97.5 °F 99.2 °F 63.1 °F 32% 29.84 in 10.0 mi WNW 5.8 mph - N/A   Clear
5:35 PM 97.7 °F 100.0 °F 64.0 °F 33% 29.84 in 10.0 mi West 4.6 mph - N/A   Clear
5:55 PM 97.2 °F 99.6 °F 64.4 °F 34% 29.83 in 10.0 mi West 3.5 mph - N/A   Clear
6:15 PM 97.2 °F 99.1 °F 63.5 °F 33% 29.84 in 10.0 mi NW 4.6 mph - N/A   Clear
6:35 PM 96.8 °F 99.5 °F 64.9 °F 35% 29.84 in 10.0 mi WNW 3.5 mph - N/A   Clear
6:55 PM 95.5 °F 96.5 °F 62.2 °F 33% 29.84 in 10.0 mi NNW 4.6 mph - N/A   Clear
7:15 PM 95.0 °F 97.0 °F 63.9 °F 36% 29.84 in 10.0 mi North 5.8 mph - N/A   Clear
7:35 PM 94.1 °F 97.3 °F 66.2 °F 40% 29.84 in 10.0 mi North 3.5 mph - N/A   Clear
7:55 PM 93.2 °F 97.2 °F 67.5 °F 43% 29.85 in 10.0 mi Calm Calm - N/A   Clear
8:15 PM 92.1 °F 96.7 °F 68.7 °F 46% 29.86 in 10.0 mi North 4.6 mph - N/A   Clear
8:35 PM 90.5 °F 95.1 °F 69.1 °F 49% 29.86 in 10.0 mi North 3.5 mph - N/A   Clear
8:55 PM 89.6 °F 94.3 °F 69.3 °F 51% 29.87 in 10.0 mi NNE 3.5 mph - N/A   Clear
9:15 PM 88.9 °F 92.2 °F 67.6 °F 49% 29.87 in 10.0 mi NNE 3.5 mph - N/A   Clear
9:35 PM 87.6 °F 91.1 °F 68.0 °F 52% 29.88 in 10.0 mi Calm Calm - N/A   Clear
9:55 PM 85.3 °F 88.8 °F 68.5 °F 57% 29.89 in 10.0 mi Calm Calm - N/A   Clear
10:15 PM 82.4 °F 85.8 °F 69.1 °F 64% 29.90 in 10.0 mi Calm Calm - N/A   Clear
10:35 PM 82.8 °F 86.4 °F 69.3 °F 64% 29.91 in 10.0 mi Calm Calm - N/A   Clear
10:55 PM 83.8 °F 87.5 °F 68.9 °F 61% 29.91 in 10.0 mi Calm Calm - N/A   Clear
11:15 PM 82.4 °F 85.8 °F 68.9 °F 64% 29.91 in 10.0 mi Calm Calm - N/A   Clear
11:35 PM 82.9 °F 86.5 °F 69.3 °F 63% 29.91 in 10.0 mi Calm Calm - N/A   Clear
11:55 PM 82.8 °F 86.4 °F 69.3 °F 64% 29.90 in 10.0 mi NNE 3.5 mph - N/A   Clear